Antigo, WI

4:31 PM CST on February 10, 2016 (GMT -0600)
Langlade County

Weather History for KAIG - April, 2013

Change the Weather History Date:

Wednesday, April 10, 2013

  Actual Average Record
Temperature  
Mean Temperature 32 °F -  
Max Temperature 38 °F 48 °F 81 °F (1977)
Min Temperature 26 °F 26 °F 12 °F (1989)
Degree Days  
Heating Degree Days 33    
Moisture  
Dew Point 22 °F    
Average Humidity 68    
Maximum Humidity 96    
Minimum Humidity 49    
Precipitation  
Precipitation 0.11 in - - ()
Sea Level Pressure  
Sea Level Pressure 30.06 in    
Wind  
Wind Speed 13 mph (NE)    
Max Wind Speed 22 mph    
Max Gust Speed 26 mph    
Visibility 9 miles    
Events Snow    
Averages and records for this station are not official NWS values.
T = Trace of Precipitation, MM = Missing Value Source: NWS Daily Summary

Daily Weather History Graph

Daily Weather History Graph

Search for Another Location

Airport or City:

Trip Planner

Search our weather history database for the weather conditions in past years. The results will help you decide how hot, cold, wet, or windy it might be!

Date:

Astronomy

Apr. 10, 2013 Rise Set
Actual Time 6:19 AM CDT 7:36 PM CDT
Civil Twilight 5:49 AM CDT 8:06 PM CDT
Nautical Twilight 5:13 AM CDT 8:43 PM CDT
Astronomical Twilight 4:34 AM CDT 9:22 PM CDT
Moon 6:14 AM CDT 8:14 PM CDT
Length of Visible Light 14h 16m
Length of Day
13h 16m
New Moon, 0% of the Moon is Illuminated
Apr 10
New Moon
Apr 18
First Quarter
Apr 25
Full
May 2
Last Quarter
May 9
New

Hourly Weather History & Observations

Time (CDT) Temp. Windchill Dew Point Humidity Pressure Visibility Wind Dir Wind Speed Gust Speed Precip Events Conditions
12:15 AM 29.8 °F 19.3 °F 22.6 °F 75% 30.08 in 10.0 mi ENE 13.8 mph 20.7 mph N/A   Overcast
12:35 AM 29.3 °F 18.6 °F 22.6 °F 76% 30.09 in 10.0 mi ENE 13.8 mph - N/A   Overcast
12:55 AM 29.1 °F 18.4 °F 23.4 °F 79% 30.10 in 10.0 mi NNE 13.8 mph - N/A   Overcast
1:15 AM 28.8 °F 19.0 °F 23.0 °F 79% 30.15 in 10.0 mi NE 11.5 mph - N/A   Overcast
1:35 AM 28.4 °F 19.7 °F 22.8 °F 80% 30.17 in 10.0 mi NE 9.2 mph - 0.01 in Snow Light Snow
1:55 AM 27.5 °F 18.6 °F 24.1 °F 87% 30.16 in 1.5 mi NE 9.2 mph - 0.01 in Snow Light Snow
2:15 AM 26.4 °F 15.5 °F 25.3 °F 96% 30.14 in 1.2 mi NE 12.7 mph - 0.02 in Snow Light Snow
2:35 AM 26.4 °F 15.5 °F 25.2 °F 95% 30.11 in 4.0 mi NE 12.7 mph 19.6 mph 0.04 in Snow Light Snow
2:55 AM 26.6 °F 14.7 °F 25.3 °F 95% 30.09 in 3.0 mi NE 15.0 mph - 0.06 in Snow Light Snow
3:15 AM 26.6 °F 14.7 °F 24.8 °F 93% 30.09 in 5.0 mi NE 15.0 mph - 0.02 in Snow Light Snow
3:35 AM 27.0 °F 14.7 °F 24.8 °F 92% 30.08 in 10.0 mi NE 16.1 mph - 0.02 in   Overcast
3:55 AM 27.1 °F 15.9 °F 23.9 °F 88% 30.09 in 10.0 mi NNE 13.8 mph - 0.02 in Snow Light Snow
4:15 AM 27.3 °F 15.6 °F 24.3 °F 88% 30.09 in 10.0 mi NNE 15.0 mph - N/A   Overcast
4:35 AM 27.1 °F 18.2 °F 24.1 °F 88% 30.10 in 3.0 mi NE 9.2 mph - N/A Snow Light Snow
4:55 AM 26.6 °F 14.3 °F 24.8 °F 93% 30.04 in 1.5 mi ENE 16.1 mph - 0.01 in Snow Light Snow
5:15 AM 26.6 °F 14.7 °F 24.8 °F 93% 30.01 in 4.0 mi ENE 15.0 mph - 0.01 in Snow Light Snow
5:35 AM 27.0 °F 14.3 °F 23.9 °F 88% 30.00 in 10.0 mi ENE 17.3 mph - 0.01 in   Scattered Clouds
5:55 AM 27.1 °F 15.9 °F 23.2 °F 85% 30.05 in 10.0 mi NE 13.8 mph - 0.01 in   Scattered Clouds
6:15 AM 27.7 °F 22.4 °F 23.4 °F 84% 30.09 in 10.0 mi NE 4.6 mph - N/A   Overcast
6:35 AM 28.2 °F 20.2 °F 23.2 °F 81% 30.08 in 10.0 mi NE 8.1 mph - N/A   Overcast
6:55 AM 28.4 °F 20.4 °F 23.5 °F 82% 30.10 in 10.0 mi NE 8.1 mph - N/A   Overcast
7:15 AM 28.4 °F 18.5 °F 22.8 °F 80% 30.10 in 10.0 mi NNE 11.5 mph - N/A   Overcast
7:35 AM 28.6 °F 18.7 °F 21.9 °F 76% 30.10 in 10.0 mi NNE 11.5 mph - N/A   Overcast
7:55 AM 28.9 °F 19.8 °F 21.7 °F 74% 30.08 in 10.0 mi NNE 10.4 mph - N/A   Overcast
8:15 AM 28.9 °F 16.5 °F 21.9 °F 75% 30.04 in 10.0 mi NE 18.4 mph - N/A   Overcast
8:35 AM 28.8 °F 15.5 °F 21.7 °F 75% 30.03 in 10.0 mi NE 20.7 mph - N/A   Overcast
8:55 AM 29.1 °F 16.7 °F 21.6 °F 73% 30.01 in 10.0 mi ENE 18.4 mph 26.5 mph N/A   Overcast
9:15 AM 30.2 °F 19.8 °F 21.4 °F 70% 29.99 in 10.0 mi ENE 13.8 mph 24.2 mph N/A   Scattered Clouds
9:35 AM 31.5 °F 22.9 °F 22.1 °F 68% 30.05 in 10.0 mi ENE 10.4 mph - N/A   Scattered Clouds
9:55 AM 31.1 °F 22.4 °F 22.5 °F 70% 30.09 in 10.0 mi NNE 10.4 mph - N/A   Overcast
10:15 AM 31.5 °F 23.5 °F 22.1 °F 68% 30.11 in 10.0 mi NNE 9.2 mph - N/A   Overcast
10:35 AM 31.3 °F 22.1 °F 22.1 °F 69% 30.10 in 10.0 mi NE 11.5 mph - N/A   Overcast
10:55 AM 31.8 °F 23.3 °F 22.1 °F 67% 30.09 in 10.0 mi NE 10.4 mph - N/A   Overcast
11:15 AM 32.0 °F 22.5 °F 22.5 °F 68% 30.08 in 10.0 mi NE 12.7 mph - N/A   Overcast
11:35 AM 32.2 °F 22.7 °F 22.6 °F 68% 30.08 in 10.0 mi NE 12.7 mph - N/A   Overcast
12:15 PM 33.8 °F 26.4 °F 23.9 °F 67% 30.08 in 10.0 mi NE 9.2 mph - N/A   Overcast
12:35 PM 34.7 °F 28.1 °F 23.5 °F 64% 30.09 in 10.0 mi NE 8.1 mph - N/A   Overcast
12:55 PM 34.7 °F 28.8 °F 23.7 °F 64% 30.10 in 10.0 mi NE 6.9 mph - N/A   Overcast
1:15 PM 34.7 °F 26.9 °F 24.4 °F 66% 30.09 in 10.0 mi NE 10.4 mph - N/A   Overcast
1:35 PM 35.1 °F 26.4 °F 24.1 °F 64% 30.08 in 10.0 mi ENE 12.7 mph - N/A   Overcast
1:55 PM 35.6 °F 25.9 °F 23.2 °F 61% 30.07 in 10.0 mi ENE 16.1 mph - N/A   Overcast
2:15 PM 36.1 °F 26.2 °F 23.2 °F 59% 30.07 in 10.0 mi ENE 17.3 mph - N/A   Overcast
2:35 PM 36.3 °F 27.1 °F 21.6 °F 55% 30.07 in 10.0 mi ENE 15.0 mph - N/A   Overcast
2:55 PM 37.0 °F 28.1 °F 22.8 °F 56% 30.05 in 10.0 mi ENE 15.0 mph - N/A   Overcast
3:15 PM 37.0 °F 27.7 °F 22.3 °F 55% 30.04 in 10.0 mi ENE 16.1 mph - N/A   Overcast
3:35 PM 37.6 °F 29.1 °F 20.5 °F 50% 30.05 in 10.0 mi ENE 13.8 mph - N/A   Mostly Cloudy
3:55 PM 38.3 °F 31.4 °F 20.5 °F 49% 30.05 in 10.0 mi ENE 10.4 mph - N/A   Scattered Clouds
4:15 PM 37.9 °F 30.9 °F 21.6 °F 52% 30.05 in 10.0 mi NE 10.4 mph - N/A   Overcast
4:35 PM 37.8 °F 30.2 °F 21.6 °F 52% 30.05 in 10.0 mi NE 11.5 mph - N/A   Overcast
4:55 PM 37.6 °F 30.0 °F 22.6 °F 55% 30.04 in 10.0 mi NE 11.5 mph - N/A   Overcast
5:15 PM 37.4 °F 28.9 °F 21.4 °F 52% 30.03 in 10.0 mi NE 13.8 mph - N/A   Overcast
5:35 PM 37.2 °F 30.0 °F 21.6 °F 53% 30.04 in 10.0 mi NE 10.4 mph - N/A   Overcast
5:55 PM 36.1 °F 28.7 °F 22.6 °F 58% 30.05 in 10.0 mi NE 10.4 mph - N/A   Overcast
6:15 PM 36.1 °F 27.7 °F 21.6 °F 56% 30.04 in 10.0 mi NE 12.7 mph - N/A   Overcast
6:35 PM 35.8 °F 27.3 °F 20.3 °F 53% 30.04 in 10.0 mi NE 12.7 mph - N/A   Overcast
6:55 PM 35.1 °F 25.5 °F 21.0 °F 57% 30.03 in 10.0 mi NE 15.0 mph - N/A   Overcast
7:15 PM 34.7 °F 25.5 °F 20.1 °F 55% 30.02 in 10.0 mi NE 13.8 mph 19.6 mph N/A   Overcast
7:35 PM 34.3 °F 23.9 °F 19.2 °F 54% 30.02 in 10.0 mi NE 17.3 mph - N/A   Overcast
7:55 PM 33.8 °F 24.8 °F 20.1 °F 57% 30.02 in 10.0 mi ENE 12.7 mph - N/A   Overcast
8:15 PM 34.0 °F 23.0 °F 18.7 °F 54% 30.01 in 10.0 mi ENE 18.4 mph - N/A   Overcast
8:35 PM 33.8 °F 23.5 °F 18.0 °F 52% 29.98 in 10.0 mi ENE 16.1 mph - N/A   Overcast
8:55 PM 33.6 °F 23.7 °F 17.1 °F 51% 30.02 in 10.0 mi ENE 15.0 mph - N/A   Overcast
9:15 PM 33.4 °F 23.5 °F 17.1 °F 51% 30.03 in 10.0 mi East 15.0 mph - N/A   Overcast
9:35 PM 32.9 °F 24.1 °F 18.0 °F 54% 30.05 in 10.0 mi ENE 11.5 mph - N/A   Overcast
9:55 PM 32.7 °F 23.0 °F 16.5 °F 51% 30.05 in 10.0 mi ENE 13.8 mph - N/A   Overcast
10:15 PM 32.4 °F 22.1 °F 16.3 °F 52% 30.05 in 10.0 mi East 15.0 mph 19.6 mph N/A   Overcast
10:35 PM 32.0 °F 21.2 °F 16.0 °F 52% 30.04 in 10.0 mi East 16.1 mph 24.2 mph N/A   Overcast
10:55 PM 31.8 °F 20.2 °F 16.7 °F 54% 30.02 in 10.0 mi ENE 18.4 mph - N/A   Mostly Cloudy
11:15 PM 30.9 °F 19.8 °F 16.9 °F 56% 30.02 in 10.0 mi ENE 16.1 mph 24.2 mph N/A   Scattered Clouds
11:35 PM 30.6 °F 19.8 °F 17.4 °F 58% 30.02 in 10.0 mi ENE 15.0 mph 21.9 mph N/A   Clear
11:55 PM 30.2 °F 17.1 °F 18.1 °F 61% 30.01 in 10.0 mi ENE 21.9 mph 25.3 mph N/A   Clear